Location: Austin
(30.3000°N, 97.7500°W)
Time: 22:25:11
(UTC-06:00)

USA 238 DEB - Pass Details

Date: 03 December 2025
Orbit: 886 x 1325 km, 63.4° (Epoch: 24 November)

Event Time Altitude Azimuth Distance (km) Brightness Sun altitude
Exits shadow 06:19:51 - 319° (NW) 3,342 5.8 -11.2°
Reaches altitude 10° 06:20:18 10° 318° (NW) 3,198 5.7 -11.1°
Maximum altitude 06:27:43 48° 247° (WSW) 1,634 4.4 -9.6°
Drops below altitude 10° 06:35:30 10° 176° (S) 3,343 6.6 -8.0°
Sets 06:38:29 0° 171° (S) 4,312 7.3 -7.4°
